[[[{"header":{"parameterUnit":"kt","parameterCategory":2,"dx":1,"dy":1,"la1":30.253999710083008,"la2":30.299108505249023,"lo1":-89.0895004272461,"lo2":-89.04439544677734,"nx":28,"ny":28,"refTime":"2022-10-30T21:00:00:Z","depth":0,"parameterNumber":1,"parameterNumberName":"U-component_of_WINDS"},"data":[8.1339,8.1561,8.1635,8.1925,8.204,8.2252,8.2351,8.2488,8.2617,8.288,8.3045,8.3144,8.3303,8.352,8.3705,8.3746,8.3819,8.3844,8.3888,8.3705,8.3685,8.3665,8.3617,8.3859,8.3859,8.4067,8.4069,8.407,8.1202,8.1318,8.1492,8.1711,8.1861,8.1882,8.2059,8.2184,8.2373,8.2533,8.2698,8.2937,8.3135,8.3289,8.3494,8.3603,8.3625,8.3653,8.3646,8.3672,8.3479,8.3426,8.3632,8.3631,8.3631,8.3631,8.3631,8.3631,8.0973,8.1103,8.1278,8.1468,8.1598,8.1745,8.1883,8.2,8.2173,8.2392,8.2448,8.2664,8.284,8.3122,8.3236,8.3409,8.3392,8.3446,8.3461,8.3473,8.3477,8.3169,8.3447,8.3447,8.3446,8.3446,8.3446,0,8.0829,8.0882,8.1052,8.1246,8.1389,8.1546,8.1704,8.1791,8.193,8.2067,8.2272,8.2403,8.2662,8.2865,8.3073,8.3181,8.3219,8.323,8.3269,8.3245,8.3198,8.3227,8.2911,8.3222,8.322,8.3219,8.3218,8.3217,8.0604,8.0746,8.0964,8.1075,8.1178,8.1355,8.1476,8.1587,8.1711,8.1922,8.2033,8.2237,8.2405,8.2723,8.2861,8.3056,8.3076,8.3187,8.3106,8.3077,8.3081,8.3071,8.3088,8.32,8.3202,8.3204,8.3206,0,8.0472,8.0591,8.0834,8.1037,8.1092,8.1236,8.1411,8.1546,8.1645,8.1845,8.1899,8.2055,8.2255,8.2376,8.2628,8.2686,8.2931,8.2944,8.2872,8.2881,8.2994,8.2982,8.3336,8.339,8.3138,8.3141,8.3142,0,8.0328,8.051,8.0677,8.0812,8.1019,8.1125,8.1328,8.1433,8.1583,8.1742,8.1802,8.195,8.208,8.2247,8.2331,8.2553,8.26,8.2657,8.2678,8.2653,8.2646,8.2721,8.271,8.2716,8.2714,8.2712,8.2711,0,8.0108,8.041,8.063,8.0718,8.0951,8.1053,8.1155,8.1324,8.1441,8.1613,8.1691,8.1884,8.199,8.214,8.2246,8.2186,8.2518,8.2459,8.2578,8.2575,8.2645,8.2639,8.2922,8.2708,8.2708,8.2707,8.2706,0,8.001,8.0178,8.0478,8.0675,8.075,8.0894,8.109,8.1242,8.1415,8.1477,8.1613,8.1667,8.1868,8.1801,8.2081,8.1973,8.2075,8.2148,8.2159,8.2185,8.2106,8.2251,8.2507,8.2539,8.2209,8.2205,8.2201,0,7.9727,8.006,8.0153,8.0435,8.0606,8.0661,8.0824,8.0975,8.1071,8.1231,8.1337,8.1519,8.1494,8.1568,8.1691,8.1808,8.1948,8.1793,8.2028,8.2035,8.198,8.2217,8.2225,8.2437,8.215,8.2155,8.2159,0,7.9522,7.9802,7.9845,7.9951,8.0165,8.0307,8.0494,8.0697,8.0798,8.096,8.1122,8.1379,8.1372,8.1492,8.1556,8.1677,8.1857,8.1653,8.1659,8.1687,8.2133,8.214,8.2175,8.1873,8.188,8.1885,8.2118,0,7.9351,7.9532,7.9654,7.9881,8.0009,8.0191,8.0315,8.0435,8.0482,8.0578,8.0816,8.0971,8.1178,8.1248,8.1296,8.1534,8.1513,8.1502,8.1446,8.1599,8.1679,8.1712,8.1316,8.1315,8.1314,8.1314,0,0,7.9052,7.9312,7.9406,7.9589,7.9704,7.9756,7.994,8.0058,8.0293,8.0372,8.0341,8.0726,8.0853,8.1129,8.1187,8.127,8.1325,8.1265,8.1524,8.1547,8.1569,8.1652,8.1684,8.1312,8.1312,8.1312,8.1312,0,7.9015,7.9138,7.9317,7.9443,7.9631,7.9723,7.9766,7.9962,8.0032,8.0264,8.0306,8.0463,8.0766,8.0896,8.1002,8.1235,8.1258,8.1289,8.1373,8.1512,8.1536,8.1557,8.1644,8.1673,8.131,8.131,8.131,0,7.8836,7.8979,7.9078,7.9337,7.946,7.9634,7.9604,7.9787,7.9918,7.9966,8.0195,8.0298,8.0481,8.0725,8.0838,8.0814,8.1191,8.1093,8.1101,8.1117,8.1257,8.1286,8.1311,8.0976,8.0974,8.0972,0,0,7.8787,7.8954,7.9141,7.9338,7.9413,7.9551,7.9655,7.9712,7.9874,7.9938,8.0069,8.0227,8.0405,8.0519,8.0692,8.0941,8.099,8.1046,8.1062,8.1074,8.1096,8.124,8.1268,8.0966,8.0966,8.0966,0,0,7.8764,7.8988,7.9006,7.9249,7.94,7.9599,7.9715,7.9743,7.991,7.9903,8.001,8.0057,8.0286,8.0385,8.0286,8.0675,8.0616,8.0642,8.0601,8.0623,8.0639,8.0611,8.0278,0,0,0,0,0,7.8788,7.896,7.8974,7.9033,7.936,7.959,7.9633,7.9724,7.9681,7.9772,7.9887,7.9903,8.0354,8.0269,8.0327,8.0437,8.0884,8.0899,8.0913,8.0919,8.0941,8.0959,0,0,0,0,0,0,7.8812,7.8883,7.897,7.9173,7.9248,7.9585,7.9532,7.9562,7.9674,7.9674,7.988,7.991,7.9993,8.0246,8.0297,8.0399,8.0261,8.089,8.0902,8.0913,8.0927,8.0944,8.0959,0,0,0,0,0,7.8831,7.8889,7.9388,7.9172,7.9237,7.9399,7.9527,7.9551,7.9639,7.9816,7.9846,7.9698,7.9993,8.0042,8.0276,8.0373,8.0227,8.0245,8.0898,8.0908,8.0916,8.0935,0,0,0,0,0,0,7.8846,7.8914,7.9403,7.9427,7.9113,7.9382,7.9427,7.9541,7.9777,7.9807,7.9638,7.9635,7.9996,8.0033,8.0071,8.0359,8.0198,8.0217,8.0229,8.0905,8.0913,8.092,0,0,0,0,0,0,7.8883,7.8933,7.9415,7.9335,7.935,7.9366,7.9406,7.9618,7.9779,7.9585,7.959,7.9634,7.994,8.0028,8.0057,8.0384,8.0177,8.0195,8.0208,8.0215,8.0912,8.0918,0,0,0,0,0,0,7.8906,7.8949,7.933,7.9341,7.9354,7.9621,7.9555,7.9885,7.9708,7.9574,7.9695,7.9689,7.9934,7.9966,8.0048,8.0362,8.0378,8.0177,8.019,8.0199,8.0204,0,0,0,0,0,0,0,7.8924,7.8616,7.9265,7.9346,7.9357,7.9641,7.9647,7.9654,7.9706,7.9701,7.9696,7.9691,8.0073,8.0093,8.0113,8.0343,0,0,8.0176,8.0184,0,0,0,0,0,0,0,0,7.86,7.8612,7.9266,7.9271,7.9276,7.9642,7.9647,7.9652,7.9706,7.9701,7.9697,7.9693,8.0079,8.0095,8.0111,0,0,0,0,0,0,0,0,0,0,0,0,0,0,0,7.9267,7.9271,0,7.9643,7.9647,7.9651,7.9705,7.9701,7.9698,7.9695,8.0083,8.0096,8.011,0,0,0,0,0,0,0,0,0,0,0,0,0,0,0,0,0,0,0,0,0,0,0,0,0,0,0,0,0,0,0,0,0,0,0,0,0,0,0,0,0,0,0,0,0,0,0,0,0,0,0,0,0,0,0,0,0,0,0,0,0,0,0,0,0,0,0,0,0]}],[{"header":{"parameterUnit":"kt","parameterCategory":2,"dx":1,"dy":1,"la1":30.253999710083008,"la2":30.299108505249023,"lo1":-89.0895004272461,"lo2":-89.04439544677734,"nx":28,"ny":28,"refTime":"2022-10-30T21:00:00:Z","depth":0,"parameterNumber":2,"parameterNumberName":"V-component_of_WINDS"},"data":[0.3111,0.3055,0.3036,0.2963,0.2933,0.2879,0.2853,0.2817,0.2783,0.2714,0.267,0.2643,0.2599,0.254,0.249,0.2478,0.2458,0.2453,0.2439,0.2483,0.2488,0.2492,0.2504,0.2449,0.2449,0.2396,0.2396,0.2395,0.3145,0.3116,0.3072,0.3016,0.2978,0.2971,0.2925,0.2893,0.2843,0.2801,0.2757,0.2694,0.264,0.2596,0.2541,0.2511,0.2503,0.2497,0.2498,0.2491,0.2537,0.2551,0.2505,0.2505,0.2505,0.2505,0.2505,0.2505,0.3202,0.317,0.3125,0.3076,0.3043,0.3005,0.2969,0.2938,0.2893,0.2834,0.2818,0.2761,0.2713,0.2635,0.2603,0.2556,0.2558,0.2544,0.254,0.2536,0.2535,0.2612,0.2545,0.2545,0.2545,0.2545,0.2546,0,0.3237,0.3223,0.318,0.313,0.3094,0.3053,0.3011,0.2989,0.295,0.2914,0.286,0.2825,0.2754,0.2699,0.2642,0.261,0.2596,0.2593,0.2583,0.2589,0.2602,0.2593,0.2668,0.2595,0.2595,0.2595,0.2595,0.2595,0.3291,0.3256,0.3199,0.3171,0.3144,0.3098,0.3067,0.3035,0.3003,0.2946,0.2917,0.2862,0.2816,0.273,0.269,0.2636,0.2628,0.2602,0.262,0.2628,0.2625,0.2627,0.2623,0.2599,0.2598,0.2598,0.2598,0,0.3323,0.3292,0.323,0.3177,0.3162,0.3125,0.3078,0.3043,0.3016,0.2963,0.2949,0.2904,0.285,0.2814,0.2744,0.2726,0.2661,0.2656,0.2678,0.2674,0.2646,0.2649,0.2564,0.255,0.2609,0.2609,0.2608,0,0.3356,0.331,0.3265,0.3231,0.3179,0.3148,0.3097,0.3068,0.3027,0.2985,0.2965,0.2926,0.2886,0.2841,0.2815,0.2756,0.2743,0.2725,0.2718,0.2725,0.2728,0.2705,0.2707,0.2706,0.2707,0.2707,0.2708,0,0.3408,0.333,0.3275,0.3252,0.3189,0.3163,0.3135,0.3089,0.3058,0.3011,0.299,0.2937,0.2908,0.2866,0.2833,0.2846,0.2761,0.2772,0.2742,0.2743,0.2723,0.2724,0.266,0.2708,0.2708,0.2708,0.2709,0,0.3428,0.3385,0.331,0.3257,0.3237,0.32,0.3147,0.3108,0.306,0.3041,0.3004,0.2986,0.2933,0.2946,0.2871,0.2898,0.2869,0.2847,0.2845,0.2836,0.2851,0.2818,0.2762,0.2754,0.283,0.2831,0.2832,0,0.3496,0.3412,0.3386,0.3314,0.327,0.3252,0.321,0.3168,0.314,0.3097,0.3066,0.3017,0.3019,0.2998,0.2966,0.2931,0.2897,0.2935,0.2869,0.2867,0.2881,0.283,0.283,0.2779,0.2845,0.2843,0.2842,0,0.3544,0.347,0.3459,0.3431,0.3372,0.3335,0.3287,0.3233,0.3205,0.3161,0.3118,0.3049,0.3047,0.3013,0.2992,0.296,0.2919,0.2962,0.2961,0.2955,0.2848,0.2849,0.284,0.2911,0.291,0.2908,0.2852,0,0.358,0.3534,0.3504,0.3443,0.3409,0.3362,0.3326,0.3295,0.3279,0.3251,0.3188,0.3143,0.3085,0.3066,0.3049,0.299,0.2993,0.2992,0.3001,0.2969,0.2949,0.2941,0.3034,0.3034,0.3034,0.3034,0,0,0.3651,0.3585,0.3557,0.351,0.3479,0.346,0.3414,0.3381,0.3315,0.3294,0.3299,0.3194,0.3157,0.3083,0.307,0.3047,0.3032,0.3045,0.2985,0.2979,0.2974,0.2954,0.2947,0.3034,0.3034,0.3034,0.3034,0,0.3657,0.3624,0.3579,0.3545,0.3493,0.3466,0.3455,0.34,0.3379,0.3318,0.3301,0.3258,0.3175,0.3137,0.3107,0.3054,0.3041,0.3039,0.3023,0.2986,0.2981,0.2976,0.2955,0.2949,0.3034,0.3034,0.3034,0,0.3696,0.3657,0.3632,0.3563,0.3528,0.3483,0.3485,0.3437,0.3402,0.3381,0.332,0.329,0.3236,0.3173,0.3143,0.3146,0.3052,0.3075,0.3074,0.3069,0.3032,0.3026,0.302,0.3094,0.3094,0.3094,0,0,0.3706,0.3663,0.361,0.3561,0.3541,0.35,0.3472,0.3453,0.3407,0.3389,0.3349,0.3304,0.3255,0.3223,0.3175,0.3111,0.3096,0.3084,0.3081,0.3079,0.3073,0.3036,0.303,0.3096,0.3096,0.3096,0,0,0.3709,0.3647,0.3639,0.3579,0.3537,0.348,0.345,0.3439,0.3393,0.3394,0.3358,0.3344,0.3284,0.3254,0.3278,0.3177,0.3187,0.318,0.3198,0.3194,0.3191,0.3199,0.327,0,0,0,0,0,0.3696,0.3655,0.3649,0.3633,0.3545,0.3484,0.3472,0.3442,0.345,0.3428,0.3393,0.3382,0.3259,0.3279,0.3263,0.3237,0.3114,0.3111,0.3108,0.3116,0.3112,0.3109,0,0,0,0,0,0,0.369,0.3671,0.365,0.3592,0.3572,0.3485,0.3491,0.3482,0.3452,0.3451,0.339,0.338,0.3353,0.3285,0.3271,0.3247,0.3275,0.3113,0.311,0.3108,0.3115,0.3112,0.3109,0,0,0,0,0,0.3684,0.3669,0.3535,0.3592,0.3574,0.3526,0.3493,0.3485,0.3461,0.3407,0.3397,0.3441,0.3353,0.3339,0.3277,0.3254,0.3285,0.3279,0.3111,0.3109,0.3107,0.3113,0,0,0,0,0,0,0.3681,0.3661,0.3531,0.3524,0.3606,0.353,0.3517,0.3488,0.3418,0.3408,0.3457,0.3457,0.3352,0.3342,0.3331,0.3258,0.3292,0.3287,0.3284,0.3109,0.3108,0.3106,0,0,0,0,0,0,0.3669,0.3656,0.3528,0.3547,0.3542,0.3534,0.3523,0.3465,0.3417,0.3472,0.347,0.3458,0.3368,0.3343,0.3335,0.3247,0.3298,0.3293,0.329,0.3288,0.3108,0.3107,0,0,0,0,0,0,0.3663,0.3651,0.3548,0.3545,0.354,0.3465,0.3482,0.3393,0.3436,0.3475,0.3439,0.344,0.337,0.3361,0.3338,0.3253,0.3248,0.3298,0.3295,0.3292,0.3291,0,0,0,0,0,0,0,0.3658,0.3742,0.357,0.3543,0.3539,0.3464,0.3462,0.346,0.3436,0.3437,0.3439,0.344,0.3327,0.3321,0.3316,0.3259,0,0,0.3299,0.3296,0,0,0,0,0,0,0,0,0.3746,0.3743,0.357,0.3569,0.3567,0.3464,0.3462,0.3461,0.3436,0.3437,0.3438,0.3439,0.3325,0.3321,0.3316,0,0,0,0,0,0,0,0,0,0,0,0,0,0,0,0.357,0.3569,0,0.3464,0.3462,0.3461,0.3437,0.3437,0.3438,0.3439,0.3324,0.3321,0.3317,0,0,0,0,0,0,0,0,0,0,0,0,0,0,0,0,0,0,0,0,0,0,0,0,0,0,0,0,0,0,0,0,0,0,0,0,0,0,0,0,0,0,0,0,0,0,0,0,0,0,0,0,0,0,0,0,0,0,0,0,0,0,0,0,0,0,0,0,0]}]]]